Regional Weather Roundup
Issued by NWS Lake Charles, LA

Home | Current Version | Previous Version | Text Only | Print | Product List | Glossary On
Versions: 1 2 3 4 5 6 7 8 9 10 11 12 13 14 15 16 17 18 19 20 21 22 23 24 25 26 27 28 29 30 31 32 33 34 35 36 37 38 39 40 41 42 43 44 45 46 47 48 49 50
000
ASUS44 KLCH 051810
RWRLCH
REGIONAL WEATHER ROUNDUP
NATIONAL WEATHER SERVICE LAKE CHARLES LA
100 PM CDT THU MAY 05 2016

Note: "fair" indicates few or no clouds below 12,000 feet with no
significant weather and/or obstructions to visibility.


ACROSS SOUTHEAST TEXAS

CITY           SKY/WX    TMP DP  RH WIND       PRES   REMARKS
BEAUMONT       SUNNY     82  48  30 N10       30.00F
BEAUMONT CITY  FAIR      81  45  28 N10       30.02S
ORANGE         CLEAR     78  38  24 N6        30.03S
JASPER         SUNNY     76  43  30 N9        30.05F
$$

ACROSS CENTRAL LOUISIANA

CITY           SKY/WX    TMP DP  RH WIND       PRES   REMARKS
LEESVILLE      SUNNY     76  45  33 NW9       30.01F
FULLERTON      FAIR      78  46  32 VRB3      29.98F
ALEXANDRIA INT SUNNY     77  42  28 NW16      29.98F
ESLER FIELD    SUNNY     79  44  28 VRB7      29.99F
DERIDDER       FAIR      76  44  31 NW5       30.03F
OAKDALE        CLEAR     78  46  32 N9        29.99F
OPELOUSAS      FAIR      75  50  40 N13G21    29.98F
$$

ACROSS SOUTHWEST AND SOUTH CENTRAL LOUISIANA

CITY           SKY/WX    TMP DP  RH WIND       PRES   REMARKS
SULPHUR        CLEAR     79  48  33 NW8       30.01F
LAKE CHARLES   SUNNY     80  46  30 NE9       29.99F
CHENNAULT INT  SUNNY     77  46  33 NW13      30.00F
CAMERON PHI    CLEAR     75  48  38 VRB7G14   30.03F
DEQUINCY       FAIR      77  47  34 NW9       30.01F
JENNINGS       FAIR      75  46  35 N8        29.99F
LAFAYETTE      SUNNY     79  48  33 N9G21     29.98F
NEW IBERIA     SUNNY     78  46  32 N7        29.98F
ABBEVILLE      FAIR      78  49  36 NW10      29.98F
PATTERSON      NOT AVBL
SALT POINT       N/A     78  53  41 W9        29.94F
$$

SELECTED SITES ACROSS THE REGION

CITY           SKY/WX    TMP DP  RH WIND       PRES   REMARKS
HOUSTON BUSH   MOSUNNY   81  48  31 N12       30.03F
HOUSTON HOBBY  MOSUNNY   84  46  26 N12G17    30.02F
GALVESTON      SUNNY     78  57  48 N5        30.03F
COLLEGE STAT   SUNNY     81  49  32 N8        30.06F
CONROE         SUNNY     81  46  29 N9        30.04F
HUNTSVILLE     SUNNY     79  45  29 N7        30.05F
LUFKIN         SUNNY     77  45  32 VRB6      30.05F
SHREVEPORT     SUNNY     76  45  33 NW9       30.03F
MONROE         SUNNY     76  46  34 N14       30.01F
NATCHEZ MS     SUNNY     73  45  35 N8        29.98F
BATON ROUGE    SUNNY     77  45  32 VRB6      29.95F
N.O. INTL ARPT SUNNY     78  54  43 NW12G20   29.94F
SLIDELL        SUNNY     77  53  43 N10G17    29.92F
$$

MARINE REPORTS

STATION/POSITION TIME  SKY/WX   TEMP    WIND        PRES    VSBY
                                AIR SEA DIR/SP/G
                 (UTC)          (F)     (DEG/KT/KT) (MB)    (MI)
BUOY 30 S HIGH I 1750            74 77  310/  2/  2 1016.5S
WVE H/P(F/S)=  2/ 4

SEA RIM ST PARK  1800            79     310/  9/ 11 1016.4F
PORT ARTHUR      1700               74   30/  4/  8 1016.7F
SABINE PASS N    1700            75 76   30/  9/ 11 1017.9S
TEXAS POINT      NOT AVBL
CALCASIEU PASS   1700            74 74   30/  9/ 10 1015.5S
LK CHARLES BEACH 1700            76 74              1016.7F
MARSH ISLAND     1700            72      90/  8/ 11   N/A
FRESH WATER LOCK 1700            75 75   20/  8/ 11 1015.9F
AMERADA PASS     1700            76 74  310/  5/  8 1014.5F
$$



USA.gov is the U.S. government's official web portal to all federal, state and local government web resources and services.